This is the latest recevied weather packets stored in our database for station/object N4ASP-13. If no packets are shown the sender has not sent any weather packets the latest 10 day(s).
| Time | Temp. | Humidity | Pressure | Rain* | Wind** | Luminosity | Snow |
|---|---|---|---|---|---|---|---|
| 1777652529 | 14.44° C | 53% | 1015 hPa | 0 mm | - | 1065 W/m² | - |
| 1777652470 | 14.44° C | 53% | 1015 hPa | 0 mm | - | 1063 W/m² | - |
| 1777652410 | 14.44° C | 52% | 1015 hPa | 0 mm | - | 1060 W/m² | - |
| 1777652351 | 14.44° C | 52% | 1015 hPa | 0 mm | - | 1060 W/m² | - |
| 1777652289 | 14.44° C | 54% | 1015 hPa | 0 mm | - | 1060 W/m² | - |
| 1777652229 | 14.44° C | 52% | 1015.1 hPa | 0 mm | - | 1063 W/m² | - |
| 1777652170 | 14.44° C | 55% | 1015 hPa | 0 mm | - | 1063 W/m² | - |
| 1777652109 | 14.44° C | 54% | 1015 hPa | 0 mm | - | 1063 W/m² | - |
| 1777652050 | 14.44° C | 53% | 1015 hPa | 0 mm | - | 1063 W/m² | - |
| 1777651990 | 14.44° C | 53% | 1014.9 hPa | 0 mm | - | 1062 W/m² | - |
| 1777651930 | 14.44° C | 54% | 1015 hPa | 0 mm | - | 1062 W/m² | - |
| 1777651870 | 14.44° C | 57% | 1015 hPa | 0 mm | - | 1060 W/m² | - |
| 1777651809 | 14.44° C | 54% | 1015.1 hPa | 0 mm | - | 1058 W/m² | - |
| 1777651750 | 14.44° C | 56% | 1015 hPa | 0 mm | - | 1060 W/m² | - |
| 1777651690 | 14.44° C | 55% | 1015 hPa | 0 mm | - | 1058 W/m² | - |
| 1777651630 | 14.44° C | 56% | 1015.1 hPa | 0 mm | - | 1056 W/m² | - |
| 1777651570 | 13.89° C | 56% | 1015.1 hPa | 0 mm | - | 1055 W/m² | - |
| 1777651511 | 13.89° C | 55% | 1015.1 hPa | 0 mm | - | 1060 W/m² | - |
| 1777651449 | 13.89° C | 56% | 1015.1 hPa | 0 mm | - | 1056 W/m² | - |
| 1777651390 | 13.89° C | 54% | 1015.1 hPa | 0 mm | - | 1074 W/m² | - |
| 1777651331 | 13.89° C | 55% | 1015.1 hPa | 0 mm | - | 1074 W/m² | - |
| 1777651269 | 13.89° C | 55% | 1015.1 hPa | 0 mm | - | 1074 W/m² | - |
| 1777651211 | 13.89° C | 57% | 1015.1 hPa | 0 mm | - | 800 W/m² | - |
| 1777651146 | 13.89° C | 56% | 1015.4 hPa | 0 mm | - | 1181 W/m² | - |
| 1777651087 | 13.89° C | 56% | 1015.3 hPa | 0 mm | - | 1181 W/m² | - |
* Rain latest hour (hover to see other rain measurements)
** Current wind speed in m/s (hover to see current wind gust speed)